FW7766 Weather Reports


Display with metric or nautical units.
time (UTC)temp
F
wind
direction
speed
MPH
gust
MPH
rain 1hr
in
rain 24hr
in
rain mn
in
humidity
%
barometer
mb
20260508165606 68 270 1.0 3.0 0.00 0.00 0.00 44 1017.6
20260508164603 68 270 1.0 3.0 0.00 0.00 0.00 44 1017.7
20260508163559 70 270 0.0 2.0 0.00 0.00 0.00 44 1017.9
20260508162556 66 270 3.0 4.0 0.00 0.00 0.00 44 1018.0
20260508161553 68 270 1.0 3.0 0.00 0.00 0.00 44 1018.3
20260508160549 68 0.0 1.0 0.00 0.00 0.00 44 1018.3
20260508155606 68 270 2.0 3.0 0.00 0.00 0.00 44 1018.5
20260508154543 67 270 0.0 1.0 0.00 0.00 0.00 44 1018.5
20260508153540 64 270 1.0 2.0 0.00 0.00 0.00 44 1018.6
20260508152536 62 270 1.0 3.0 0.00 0.00 0.00 44 1018.8
20260508151532 61 270 1.0 2.0 0.00 0.00 0.00 44 1018.8
20260508150529 60 270 1.0 2.0 0.00 0.00 0.00 44 1018.9
20260508145526 60 270 1.0 3.0 0.00 0.00 0.00 44 1018.9
20260508144522 59 270 0.0 1.0 0.00 0.00 0.00 43 1018.8
20260508143518 59 270 0.0 1.0 0.00 0.00 0.00 40 1018.8
20260508142615 58 270 1.0 2.0 0.00 0.00 0.00 40 1018.8
20260508141612 57 270 0.0 1.0 0.00 0.00 0.00 40 1018.9
20260508140608 57 0.0 0.0 0.00 0.00 0.00 40 1018.8
20260508135605 57 0.0 0.0 0.00 0.00 0.00 40 1018.7
20260508134602 55 270 1.0 2.0 0.00 0.00 0.00 40 1018.6
20260508133618 54 270 0.0 1.0 0.00 0.00 0.00 46 1018.6
20260508132559 53 0.0 1.0 0.00 0.00 0.00 50 1018.5
20260508131551 52 0.0 0.0 0.00 0.00 0.00 51 1018.6
20260508130608 51 0.0 0.0 0.00 0.00 0.00 51 1018.6
20260508125545 50 0.0 0.0 0.00 0.01 0.00 55 1018.4
20260508124541 49 0.0 0.0 0.00 0.02 0.00 58 1018.4
20260508123538 48 0.0 0.0 0.00 0.02 0.00 57 1018.4
20260508122535 47 0.0 0.0 0.00 0.04 0.00 60 1018.4
20260508121531 46 0.0 0.0 0.00 0.05 0.00 65 1018.3
20260508120528 45 0.0 0.0 0.00 0.07 0.00 77 1018.1
20260508115524 44 0.0 0.0 0.00 0.07 0.00 77 1018.0
20260508114521 44 0.0 0.0 0.00 0.08 0.00 76 1017.8
20260508113518 43 0.0 0.0 0.00 0.09 0.00 76 1017.6
20260508112614 43 0.0 0.0 0.00 0.11 0.00 75 1017.5
20260508111611 43 0.0 0.0 0.00 0.11 0.00 75 1017.3
20260508110608 42 270 0.0 1.0 0.00 0.11 0.00 75 1017.1
20260508105623 43 0.0 1.0 0.00 0.11 0.00 78 1017.1
20260508104600 43 0.0 0.0 0.00 0.11 0.00 78 1017.0
20260508103557 43 0.0 0.0 0.00 0.11 0.00 76 1016.8
20260508102553 43 90 1.0 1.0 0.00 0.11 0.00 76 1016.5
20260508101550 43 90 1.0 2.0 0.00 0.11 0.00 78 1016.5
20260508100547 44 0 1.0 1.0 0.00 0.11 0.00 87 1016.5
20260508095543 44 0 1.0 1.0 0.00 0.11 0.00 89 1016.2
20260508094540 43 7 1.0 2.0 0.00 0.11 0.00 87 1016.0
20260508093616 44 0.0 0.0 0.00 0.11 0.00 87 1016.1
20260508092533 44 0.0 0.0 0.00 0.11 0.00 87 1015.9
20260508091530 44 26 1.0 2.0 0.00 0.11 0.00 85 1016.0
20260508090546 44 35 1.0 3.0 0.00 0.11 0.00 82 1015.9
20260508085523 44 0 0.0 2.0 0.00 0.11 0.00 79 1015.8
20260508084519 44 23 0.0 2.0 0.00 0.11 0.00 79 1015.8
20260508083516 45 0.0 0.0 0.00 0.11 0.00 80 1015.7
20260508082613 45 0.0 0.0 0.00 0.11 0.00 83 1015.7
20260508081609 46 0.0 0.0 0.00 0.11 0.00 77 1015.6
20260508080606 45 0.0 0.0 0.00 0.11 0.00 82 1015.4
20260508075642 46 0.0 0.0 0.00 0.11 0.00 78 1015.5
20260508074618 46 0.0 0.0 0.00 0.11 0.00 78 1015.6
20260508073556 46 0.0 0.0 0.00 0.11 0.00 78 1015.4
20260508072552 46 0.0 0.0 0.00 0.11 0.00 77 1015.3
20260508071549 46 90 0.0 1.0 0.00 0.11 0.00 76 1015.3
20260508070545 46 45 1.0 2.0 0.00 0.11 0.00 76 1015.2
20260508065541 46 0.0 0.0 0.00 0.12 0.00 76 1015.1
20260508064538 46 0.0 0.0 0.00 0.15 0.00 76 1015.1
20260508063534 46 0.0 0.0 0.00 0.15 0.00 75 1015.1
20260508062531 46 90 1.0 1.0 0.00 0.15 0.00 75 1015.1
20260508061528 47 0.0 0.0 0.00 0.15 0.00 74 1015.1
20260508060525 47 0.0 0.0 0.00 0.15 0.00 73 1015.2
20260508055521 47 72 1.0 2.0 0.00 0.15 0.00 73 1015.2
20260508054517 47 45 0.0 2.0 0.00 0.15 0.00 73 1015.2
20260508053615 48 90 0.0 1.0 0.00 0.17 0.00 72 1015.1
20260508052611 47 90 0.0 1.0 0.00 0.17 0.00 71 1014.8
20260508051627 48 90 0.0 1.0 0.00 0.17 0.00 70 1015.0
20260508050605 49 0.0 0.0 0.00 0.17 0.00 71 1014.9
20260508045620 49 0.0 0.0 0.00 0.17 0.00 71 1014.9
20260508044557 49 0.0 0.0 0.00 0.18 0.00 71 1014.9
20260508043553 49 0.0 0.0 0.00 0.18 0.00 71 1014.7
20260508042550 50 0.0 0.0 0.00 0.18 0.00 70 1014.7
20260508041546 50 0.0 0.0 0.00 0.18 0.00 70 1014.5
20260508040544 49 0.0 0.0 0.00 0.18 0.00 69 1014.4
20260508035600 50 0.0 0.0 0.00 0.18 0.18 70 1014.5
20260508034556 51 0.0 0.0 0.00 0.18 0.18 70 1014.4
20260508033533 51 0.0 0.0 0.00 0.18 0.18 70 1014.4
20260508032529 51 0.0 0.0 0.00 0.18 0.18 69 1014.3
20260508031527 51 90 1.0 3.0 0.00 0.18 0.18 68 1014.3
20260508030523 52 0.0 0.0 0.00 0.19 0.18 69 1014.0
20260508025520 52 0.0 0.0 0.00 0.19 0.18 67 1014.0
20260508024517 53 270 1.0 2.0 0.00 0.19 0.18 68 1014.0
20260508023613 52 90 0.0 1.0 0.00 0.20 0.18 68 1014.0
20260508022611 53 0.0 0.0 0.00 0.20 0.18 69 1013.7
20260508021607 53 0.0 0.0 0.00 0.20 0.18 69 1013.4
20260508020603 53 0.0 0.0 0.00 0.20 0.18 69 1013.3
20260508015559 53 0.0 0.0 0.00 0.21 0.18 69 1013.2
20260508014615 54 0.0 0.0 0.00 0.21 0.18 69 1013.0
20260508013552 55 0.0 0.0 0.00 0.21 0.18 66 1012.8
20260508012549 55 0.0 0.0 0.00 0.21 0.18 66 1012.6
20260508011545 56 0.0 0.0 0.00 0.21 0.18 66 1012.5
20260508010542 56 0.0 0.0 0.00 0.21 0.18 67 1012.4
20260508005539 56 54 1.0 2.0 0.00 0.21 0.18 67 1012.4
20260508004555 56 0 1.0 2.0 0.00 0.22 0.18 68 1012.2
20260508003532 56 0 1.0 2.0 0.00 0.22 0.18 68 1012.2
20260508002529 56 0.0 0.0 0.00 0.22 0.18 67 1012.3
20260508001545 57 0.0 0.0 0.00 0.22 0.18 66 1012.4
20260508000522 57 0.0 0.0 0.00 0.22 0.18 66 1012.4
20260507235517 57 0.0 0.0 0.00 0.22 0.18 66 1012.2
20260507234633 58 0.0 0.0 0.00 0.22 0.18 66 1012.2
20260507233610 58 0.0 0.0 0.00 0.22 0.18 66 1011.9
20260507232612 58 0.0 0.0 0.00 0.22 0.18 65 1011.7
20260507231604 58 90 0.0 1.0 0.00 0.22 0.18 65 1011.6
20260507230600 58 90 1.0 2.0 0.00 0.22 0.18 65 1011.4
20260507225616 58 69 2.0 3.0 0.00 0.22 0.18 65 1011.2
20260507224553 58 65 2.0 3.0 0.00 0.22 0.18 65 1011.1
20260507223549 58 74 2.0 3.0 0.00 0.22 0.18 65 1011.1
20260507222546 59 71 2.0 3.0 0.00 0.22 0.18 65 1010.9
20260507221543 58 90 1.0 3.0 0.00 0.22 0.18 65 1011.0
20260507220559 59 90 1.0 2.0 0.00 0.22 0.18 65 1010.8
20260507215555 59 100 1.0 3.0 0.00 0.22 0.18 65 1010.7
20260507214532 59 81 3.0 4.0 0.00 0.22 0.18 62 1010.6
20260507213529 59 90 2.0 3.0 0.00 0.22 0.18 63 1010.6
20260507212546 59 90 2.0 4.0 0.00 0.22 0.18 65 1010.3
20260507211522 58 90 2.0 3.0 0.00 0.22 0.18 65 1010.4
20260507210519 59 83 2.0 5.0 0.00 0.22 0.18 65 1010.4
20260507205515 59 72 3.0 5.0 0.00 0.22 0.18 65 1010.1
20260507204612 58 90 3.0 5.0 0.00 0.22 0.18 65 1010.2
20260507203628 58 90 3.0 5.0 0.00 0.22 0.18 63 1010.2
20260507202605 59 90 3.0 5.0 0.00 0.22 0.18 65 1010.1
20260507201602 59 60 3.0 5.0 0.00 0.22 0.18 68 1010.2
20260507200618 58 90 3.0 4.0 0.00 0.22 0.18 70 1010.3
20260507195555 58 85 2.0 3.0 0.00 0.22 0.18 69 1010.7
20260507194611 58 54 3.0 5.0 0.00 0.22 0.18 69 1010.6
20260507193548 58 35 3.0 5.0 0.00 0.22 0.18 69 1010.7
20260507192544 58 51 4.0 5.0 0.00 0.22 0.18 68 1010.6
20260507191541 59 82 3.0 5.0 0.00 0.22 0.18 67 1010.1
20260507190538 60 62 3.0 7.0 0.00 0.22 0.18 65 1010.0
20260507185534 60 79 4.0 6.0 0.00 0.22 0.18 65 1010.3
20260507184531 60 45 4.0 5.0 0.00 0.22 0.18 65 1010.3
20260507183527 60 52 3.0 4.0 0.00 0.22 0.18 65 1010.3
20260507182523 61 85 4.0 6.0 0.00 0.22 0.18 66 1010.2
20260507181520 61 80 2.0 3.0 0.00 0.22 0.18 66 1010.2
20260507180536 61 45 3.0 5.0 0.00 0.22 0.18 66 1010.1
20260507175613 62 90 3.0 5.0 0.00 0.22 0.18 66 1010.1
20260507174610 62 75 3.0 5.0 0.00 0.22 0.18 66 1010.1
20260507173606 62 81 3.0 5.0 0.00 0.22 0.18 66 1010.2
20260507172603 63 80 2.0 4.0 0.00 0.22 0.18 70 1010.2
20260507171559 63 90 2.0 4.0 0.00 0.22 0.18 76 1010.1
20260507170556 63 90 2.0 3.0 0.00 0.22 0.18 88 1010.3